Terminal Aerodrome Forecast
Issued by NWS

Home | Current Version | Previous Version | Text Only | Print | Product List | Glossary On
Versions: 1 2 3 4 5 6 7 8 9 10 11 12 13 14
000
FTUS46 KPDT 041141
TAFBDN
TAF
KBDN 041141Z 0412/0512 VRB03KT P6SM VCSH BKN040 BKN100
     FM042000 34009KT P6SM VCSH OVC080
     FM042200 34010G18KT P6SM -SHRA OVC045
     FM050200 33010KT P6SM -SHRA OVC030=

USA.gov is the U.S. government's official web portal to all federal, state and local government web resources and services.